GFSSE_prec_precacc24_276.txt.gz
Total_Precipitation_Accumulation
0.02 0.01 0.05 0.08 0.07 0.06 0.03 0.09 0.16 0.21 0.13 0.12 0.17 0.13 0.08 0.19 0.25 0.33 0.32 0.36 0.88 1.90 1.56 1.19 0.66 0.53 0.80 0.95 0.78 0.50 0.41 0.21 0.09 0.02 0.01 0.01 0.01 0.00 0.04 0.07 0.04 0.03 0.02
0.00 0.00 0.07 0.08 0.05 0.01 0.01 0.05 0.15 0.14 0.10 0.08 0.15 0.12 0.07 0.10 0.17 0.32 0.32 0.31 0.92 1.11 0.95 0.72 0.65 0.80 0.90 0.68 0.30 0.23 0.13 0.04 0.01 0.01 0.02 0.01 0.01 0.01 0.03 0.06 0.05 0.01 0.02
0.00 0.00 0.03 0.06 0.02 0.00 0.03 0.10 0.13 0.12 0.09 0.08 0.13 0.16 0.16 0.12 0.17 0.24 0.21 0.28 0.44 0.53 0.45 0.51 0.69 0.86 0.36 0.10 0.11 0.20 0.07 0.13 0.10 0.07 0.08 0.01 0.01 0.02 0.02 0.01 0.01 0.00 0.00
0.00 0.00 0.00 0.01 0.02 0.01 0.02 0.06 0.08 0.08 0.05 0.08 0.11 0.13 0.10 0.11 0.16 0.24 0.19 0.22 0.28 0.31 0.20 0.20 0.21 0.12 0.10 0.12 0.12 0.11 0.12 0.13 0.11 0.09 0.02 0.00 0.00 0.05 0.04 0.00 0.00 0.00 0.01
0.00 0.00 0.00 0.01 0.01 0.05 0.11 0.11 0.09 0.04 0.04 0.06 0.07 0.06 0.11 0.13 0.09 0.13 0.18 0.19 0.14 0.14 0.08 0.08 0.07 0.06 0.13 0.15 0.13 0.15 0.08 0.10 0.06 0.01 0.01 0.00 0.00 0.00 0.01 0.04 0.07 0.06 0.08
0.00 0.00 0.01 0.04 0.07 0.09 0.05 0.04 0.08 0.07 0.03 0.07 0.08 0.11 0.11 0.13 0.10 0.11 0.10 0.11 0.06 0.06 0.06 0.04 0.04 0.04 0.03 0.02 0.00 0.02 0.00 0.02 0.02 0.00 0.00 0.00 0.00 0.03 0.05 0.08 0.05 0.05 0.03
0.00 0.00 0.00 0.02 0.05 0.11 0.11 0.06 0.04 0.04 0.03 0.04 0.17 0.12 0.11 0.06 0.06 0.09 0.06 0.03 0.02 0.03 0.02 0.02 0.01 0.02 0.01 0.00 0.00 0.00 0.00 0.02 0.00 0.00 0.00 0.00 0.00 0.04 0.03 0.02 0.02 0.03 0.02
0.00 0.00 0.00 0.02 0.01 0.02 0.08 0.04 0.05 0.06 0.08 0.03 0.02 0.02 0.03 0.03 0.03 0.03 0.05 0.04 0.03 0.03 0.02 0.02 0.00 0.01 0.01 0.01 0.00 0.06 0.05 0.06 0.02 0.00 0.00 0.00 0.00 0.02 0.02 0.02 0.02 0.01 0.01
0.00 0.00 0.00 0.00 0.00 0.00 0.01 0.02 0.00 0.00 0.01 0.07 0.05 0.03 0.06 0.02 0.01 0.03 0.02 0.02 0.02 0.03 0.02 0.01 0.01 0.03 0.03 0.00 0.01 0.02 0.09 0.05 0.02 0.00 0.00 0.00 0.00 0.02 0.01 0.01 0.01 0.03 0.01
0.00 0.00 0.00 0.00 0.00 0.00 0.00 0.00 0.00 0.00 0.00 0.01 0.05 0.03 0.04 0.03 0.04 0.03 0.04 0.02 0.01 0.03 0.03 0.03 0.01 0.01 0.02 0.01 0.01 0.02 0.03 0.01 0.01 0.00 0.00 0.00 0.00 0.00 0.00 0.00 0.01 0.01 0.01
0.00 0.00 0.00 0.02 0.00 0.01 0.00 0.01 0.04 0.02 0.00 0.00 0.01 0.04 0.08 0.06 0.05 0.05 0.03 0.02 0.03 0.02 0.01 0.03 0.01 0.01 0.02 0.00 0.01 0.03 0.03 0.04 0.01 0.00 0.00 0.01 0.03 0.00 0.00 0.00 0.01 0.00 0.00
0.00 0.00 0.00 0.00 0.00 0.00 0.00 0.21 0.51 0.36 0.27 0.10 0.05 0.13 0.16 0.10 0.10 0.28 0.03 0.04 0.05 0.04 0.03 0.02 0.03 0.01 0.00 0.00 0.00 0.02 0.04 0.02 0.00 0.01 0.01 0.02 0.07 0.01 0.00 0.00 0.00 0.00 0.00
0.00 0.00 0.00 0.00 0.03 0.04 0.04 0.22 0.30 0.28 0.28 0.21 0.02 0.04 0.10 0.06 0.05 0.10 0.08 0.06 0.04 0.03 0.02 0.05 0.03 0.02 0.00 0.00 0.00 0.00 0.01 0.00 0.00 0.00 0.02 0.04 0.06 0.03 0.00 0.00 0.00 0.00 0.00
0.00 0.00 0.00 0.00 0.01 0.03 0.04 0.23 0.19 0.37 0.31 0.17 0.02 0.03 0.14 0.18 0.16 0.06 0.14 0.13 0.05 0.07 0.06 0.13 0.09 0.01 0.00 0.01 0.00 0.00 0.00 0.00 0.00 0.00 0.00 0.01 0.04 0.03 0.04 0.19 0.27 0.08 0.03
0.00 0.00 0.01 0.01 0.03 0.02 0.01 0.08 0.22 0.46 0.46 0.18 0.09 0.16 0.08 0.10 0.32 0.31 0.14 0.15 0.09 0.13 0.15 0.03 0.03 0.03 0.03 0.04 0.03 0.02 0.03 0.05 0.00 0.00 0.00 0.01 0.03 0.04 0.15 0.36 0.57 0.40 0.28
0.00 0.00 0.02 0.03 0.04 0.05 0.07 0.20 0.27 0.76 0.54 0.59 0.47 0.18 0.19 0.15 0.18 0.39 0.31 0.20 0.25 0.31 0.17 0.11 0.06 0.03 0.04 0.07 0.09 0.04 0.04 0.06 0.04 0.04 0.03 0.02 0.03 0.14 0.30 0.32 0.54 0.39 0.38
0.00 0.01 0.04 0.04 0.10 0.04 0.10 0.21 0.28 0.52 0.75 0.38 0.19 0.10 0.12 0.14 0.29 0.42 0.25 0.36 0.26 0.21 0.31 0.27 0.15 0.17 0.16 0.08 0.11 0.10 0.03 0.02 0.00 0.11 0.14 0.06 0.04 0.09 0.33 0.39 0.59 0.37 0.32
0.00 0.00 0.02 0.02 0.11 0.07 0.06 0.08 0.11 0.17 0.14 0.06 0.01 0.01 0.02 0.04 0.16 0.07 0.06 0.19 0.14 0.18 0.40 0.39 0.47 0.53 0.57 0.30 0.09 0.06 0.05 0.09 0.07 0.13 0.23 0.15 0.15 0.07 0.20 0.29 0.34 0.46 0.48
0.00 0.01 0.05 0.02 0.07 0.09 0.02 0.08 0.09 0.04 0.13 0.08 0.01 0.01 0.02 0.01 0.01 0.01 0.05 0.03 0.02 0.07 0.27 0.24 0.53 0.48 0.22 0.30 0.11 0.09 0.08 0.20 0.24 0.33 0.26 0.23 0.30 0.19 0.17 0.21 0.40 0.48 0.35
0.03 0.01 0.06 0.01 0.09 0.04 0.04 0.07 0.13 0.00 0.04 0.06 0.03 0.02 0.03 0.02 0.02 0.00 0.05 0.12 0.03 0.11 0.34 0.28 0.47 0.25 0.24 0.17 0.17 0.18 0.17 0.16 0.23 0.41 0.38 0.58 0.74 0.38 0.44 0.34 0.82 0.47 0.47
0.08 0.07 0.07 0.03 0.02 0.02 0.02 0.03 0.04 0.03 0.07 0.17 0.15 0.19 0.09 0.05 0.09 0.17 0.16 0.24 0.13 0.28 0.39 0.45 0.47 0.37 0.28 0.26 0.34 0.15 0.06 0.23 0.19 0.21 0.23 0.40 0.62 0.67 0.62 0.63 0.54 0.67 0.42
0.02 0.08 0.07 0.03 0.05 0.01 0.01 0.03 0.04 0.05 0.09 0.17 0.32 0.41 0.29 0.18 0.30 0.53 0.61 0.30 0.28 0.36 0.51 0.37 0.36 0.32 0.21 0.34 0.49 0.32 0.25 0.30 0.61 0.50 0.23 1.19 1.10 1.79 1.39 0.95 0.65 0.81 0.77
0.00 0.01 0.01 0.03 0.06 0.01 0.02 0.04 0.11 0.20 0.24 0.30 0.32 0.68 1.00 0.81 0.22 0.41 0.40 0.52 0.32 0.47 0.39 0.61 0.47 0.64 0.33 0.51 0.52 0.40 0.20 0.47 0.65 0.48 0.72 0.61 0.36 0.40 0.79 2.23 1.57 1.47 1.54
0.00 0.00 0.00 0.00 0.02 0.01 0.02 0.05 0.15 0.14 0.23 0.26 0.37 0.51 0.32 0.26 0.13 0.05 0.10 0.17 0.27 0.46 0.53 0.59 0.75 0.66 0.71 1.07 0.59 0.52 0.27 0.29 0.80 0.47 0.88 0.58 0.14 0.30 0.24 0.16 0.20 0.14 0.42
0.00 0.00 0.00 0.00 0.04 0.03 0.06 0.16 0.19 0.17 0.45 0.44 0.56 0.45 0.29 0.20 0.11 0.06 0.03 0.05 0.11 0.33 0.53 0.73 0.69 0.60 0.57 0.67 0.45 0.54 0.34 0.35 0.40 0.30 0.32 0.41 0.21 0.28 0.49 0.58 0.26 0.39 0.18
0.01 0.01 0.00 0.00 0.02 0.05 0.09 0.16 0.14 0.31 0.25 0.40 0.38 0.41 0.35 0.26 0.14 0.20 0.19 0.26 0.32 0.31 0.36 0.41 0.48 0.36 0.15 0.16 0.26 0.50 0.35 0.48 0.37 0.31 0.14 0.04 0.07 0.07 0.01 0.04 0.10 0.09 0.13

GFSSE_prec_precacc24_279.txt.gz
Total_Precipitation_Accumulation
0.02 0.01 0.07 0.11 0.09 0.07 0.04 0.10 0.18 0.23 0.14 0.11 0.15 0.11 0.09 0.24 0.43 0.60 0.58 0.56 0.94 1.96 1.54 1.16 0.63 0.49 0.75 1.00 0.91 0.51 0.41 0.21 0.09 0.02 0.01 0.01 0.01 0.01 0.04 0.08 0.05 0.06 0.04
0.00 0.01 0.08 0.07 0.05 0.02 0.01 0.06 0.15 0.15 0.14 0.08 0.12 0.10 0.09 0.16 0.29 0.52 0.48 0.51 1.06 1.24 0.95 0.77 0.64 0.79 0.91 0.80 0.33 0.25 0.10 0.03 0.01 0.01 0.02 0.01 0.01 0.01 0.02 0.06 0.05 0.01 0.01
0.00 0.00 0.03 0.05 0.01 0.00 0.03 0.10 0.13 0.16 0.14 0.10 0.13 0.16 0.14 0.16 0.25 0.38 0.35 0.47 0.75 0.62 0.56 0.64 0.71 0.93 0.49 0.13 0.12 0.22 0.06 0.19 0.11 0.06 0.08 0.01 0.01 0.01 0.01 0.02 0.01 0.00 0.00
0.00 0.00 0.00 0.01 0.02 0.01 0.02 0.06 0.09 0.13 0.08 0.09 0.11 0.12 0.10 0.11 0.20 0.32 0.27 0.31 0.47 0.37 0.26 0.38 0.36 0.22 0.14 0.12 0.12 0.11 0.15 0.16 0.11 0.09 0.02 0.00 0.00 0.04 0.03 0.00 0.00 0.00 0.01
0.00 0.00 0.00 0.00 0.01 0.05 0.11 0.10 0.09 0.08 0.06 0.09 0.07 0.08 0.12 0.13 0.10 0.14 0.22 0.22 0.17 0.17 0.15 0.17 0.09 0.08 0.16 0.17 0.16 0.17 0.08 0.10 0.06 0.01 0.01 0.00 0.00 0.00 0.01 0.04 0.07 0.06 0.08
0.00 0.00 0.01 0.04 0.07 0.09 0.06 0.04 0.08 0.07 0.03 0.07 0.10 0.11 0.12 0.14 0.10 0.11 0.12 0.12 0.07 0.08 0.07 0.04 0.04 0.04 0.04 0.05 0.04 0.04 0.00 0.02 0.02 0.00 0.00 0.00 0.00 0.03 0.05 0.08 0.05 0.05 0.03
0.00 0.00 0.00 0.02 0.05 0.11 0.11 0.06 0.04 0.04 0.03 0.04 0.17 0.12 0.11 0.07 0.06 0.10 0.07 0.04 0.03 0.05 0.03 0.03 0.01 0.01 0.01 0.00 0.00 0.00 0.00 0.02 0.00 0.00 0.00 0.00 0.00 0.04 0.03 0.02 0.02 0.02 0.02
0.00 0.00 0.00 0.02 0.01 0.02 0.08 0.04 0.05 0.07 0.09 0.04 0.02 0.02 0.03 0.03 0.04 0.05 0.06 0.04 0.03 0.03 0.02 0.02 0.00 0.01 0.01 0.00 0.00 0.00 0.01 0.05 0.02 0.00 0.00 0.00 0.00 0.02 0.02 0.02 0.01 0.01 0.00
0.00 0.00 0.00 0.00 0.00 0.00 0.01 0.02 0.00 0.00 0.02 0.08 0.05 0.03 0.06 0.03 0.02 0.03 0.02 0.02 0.02 0.03 0.02 0.01 0.01 0.03 0.03 0.00 0.00 0.01 0.06 0.05 0.02 0.00 0.00 0.00 0.00 0.02 0.01 0.01 0.01 0.02 0.01
0.00 0.00 0.00 0.00 0.00 0.00 0.00 0.00 0.00 0.00 0.00 0.01 0.05 0.03 0.04 0.03 0.05 0.03 0.04 0.02 0.01 0.03 0.03 0.03 0.01 0.01 0.02 0.01 0.00 0.00 0.03 0.01 0.01 0.00 0.00 0.00 0.00 0.00 0.00 0.00 0.01 0.01 0.01
0.00 0.00 0.00 0.02 0.00 0.01 0.00 0.01 0.02 0.01 0.01 0.00 0.01 0.04 0.09 0.06 0.05 0.05 0.03 0.02 0.03 0.01 0.00 0.02 0.01 0.01 0.02 0.00 0.01 0.01 0.04 0.04 0.01 0.00 0.00 0.00 0.00 0.00 0.00 0.00 0.01 0.00 0.00
0.00 0.00 0.00 0.00 0.00 0.00 0.00 0.14 0.38 0.19 0.07 0.05 0.04 0.12 0.15 0.10 0.10 0.28 0.02 0.03 0.04 0.04 0.03 0.02 0.03 0.01 0.00 0.00 0.00 0.00 0.04 0.03 0.04 0.02 0.01 0.03 0.05 0.01 0.00 0.00 0.00 0.00 0.00
0.00 0.00 0.00 0.00 0.03 0.04 0.04 0.21 0.26 0.16 0.17 0.16 0.02 0.05 0.10 0.06 0.04 0.05 0.04 0.04 0.04 0.03 0.02 0.03 0.03 0.02 0.00 0.00 0.00 0.00 0.01 0.00 0.00 0.00 0.02 0.05 0.11 0.04 0.00 0.00 0.00 0.00 0.00
0.00 0.00 0.00 0.00 0.00 0.03 0.03 0.23 0.18 0.31 0.21 0.15 0.01 0.01 0.12 0.10 0.11 0.04 0.09 0.11 0.05 0.05 0.05 0.06 0.04 0.01 0.00 0.01 0.00 0.00 0.00 0.00 0.01 0.01 0.00 0.01 0.07 0.08 0.01 0.17 0.23 0.08 0.03
0.00 0.00 0.01 0.01 0.02 0.02 0.01 0.10 0.27 0.45 0.40 0.16 0.08 0.03 0.04 0.04 0.15 0.16 0.11 0.15 0.09 0.12 0.14 0.03 0.02 0.02 0.03 0.05 0.01 0.00 0.02 0.02 0.01 0.00 0.00 0.00 0.03 0.07 0.14 0.21 0.38 0.32 0.27
0.00 0.00 0.02 0.03 0.04 0.06 0.08 0.20 0.31 0.77 0.51 0.54 0.45 0.11 0.17 0.17 0.13 0.34 0.31 0.18 0.16 0.28 0.13 0.12 0.08 0.06 0.05 0.08 0.10 0.05 0.04 0.05 0.05 0.09 0.00 0.00 0.01 0.11 0.27 0.35 0.55 0.43 0.33
0.00 0.01 0.04 0.04 0.10 0.05 0.13 0.20 0.28 0.52 0.70 0.35 0.18 0.09 0.12 0.15 0.30 0.43 0.28 0.31 0.20 0.20 0.30 0.27 0.17 0.21 0.17 0.11 0.13 0.11 0.06 0.07 0.06 0.19 0.19 0.07 0.04 0.10 0.32 0.42 0.68 0.52 0.45
0.00 0.00 0.02 0.01 0.10 0.07 0.06 0.08 0.11 0.16 0.12 0.06 0.01 0.02 0.04 0.04 0.18 0.09 0.08 0.11 0.08 0.17 0.36 0.35 0.31 0.45 0.58 0.33 0.10 0.05 0.05 0.11 0.17 0.21 0.27 0.18 0.17 0.05 0.22 0.32 0.41 0.47 0.58
0.00 0.00 0.00 0.00 0.05 0.08 0.02 0.08 0.09 0.03 0.13 0.11 0.02 0.01 0.01 0.01 0.05 0.02 0.07 0.04 0.06 0.05 0.29 0.28 0.54 0.53 0.25 0.33 0.12 0.08 0.09 0.17 0.29 0.23 0.19 0.26 0.35 0.15 0.13 0.19 0.41 0.62 0.42
0.02 0.00 0.00 0.00 0.01 0.01 0.02 0.07 0.13 0.00 0.04 0.04 0.02 0.02 0.03 0.02 0.07 0.01 0.07 0.11 0.12 0.17 0.41 0.52 0.62 0.51 0.30 0.17 0.08 0.13 0.22 0.21 0.26 0.42 0.31 0.47 0.63 0.35 0.37 0.28 0.85 0.59 0.52
0.07 0.06 0.04 0.01 0.00 0.00 0.01 0.03 0.04 0.01 0.07 0.11 0.13 0.21 0.15 0.13 0.15 0.23 0.19 0.26 0.13 0.32 0.40 0.49 0.53 0.40 0.28 0.25 0.29 0.11 0.10 0.31 0.30 0.32 0.25 0.36 0.47 0.57 0.61 0.64 0.55 0.71 0.44
0.02 0.08 0.07 0.03 0.05 0.01 0.02 0.03 0.04 0.05 0.09 0.13 0.33 0.41 0.31 0.22 0.33 0.67 0.71 0.37 0.26 0.35 0.57 0.36 0.33 0.30 0.20 0.34 0.51 0.34 0.28 0.37 0.70 0.51 0.23 1.18 1.07 1.73 1.34 0.90 0.61 0.80 0.77
0.02 0.03 0.01 0.02 0.06 0.01 0.02 0.05 0.10 0.15 0.18 0.31 0.34 0.69 1.00 0.75 0.22 0.41 0.43 0.47 0.32 0.45 0.43 0.62 0.48 0.60 0.17 0.44 0.52 0.43 0.18 0.43 0.61 0.48 0.69 0.61 0.33 0.32 0.78 2.23 1.54 1.47 1.53
0.01 0.05 0.02 0.02 0.03 0.01 0.02 0.02 0.13 0.11 0.23 0.25 0.37 0.51 0.32 0.28 0.20 0.08 0.16 0.15 0.28 0.45 0.50 0.59 0.80 0.73 0.57 0.79 0.53 0.47 0.27 0.29 0.72 0.41 0.82 0.52 0.10 0.25 0.23 0.11 0.17 0.14 0.42
0.00 0.02 0.01 0.06 0.08 0.04 0.05 0.06 0.09 0.12 0.45 0.44 0.56 0.47 0.30 0.30 0.22 0.13 0.06 0.05 0.11 0.33 0.53 0.68 0.66 0.57 0.55 0.60 0.38 0.51 0.34 0.35 0.41 0.30 0.32 0.27 0.07 0.25 0.49 0.54 0.22 0.36 0.18
0.01 0.00 0.00 0.11 0.10 0.07 0.07 0.05 0.06 0.29 0.25 0.33 0.37 0.39 0.36 0.34 0.16 0.16 0.16 0.26 0.32 0.31 0.30 0.36 0.45 0.36 0.16 0.17 0.25 0.41 0.31 0.46 0.36 0.31 0.17 0.04 0.06 0.01 0.00 0.01 0.02 0.06 0.11

GFSSE_prec_precacc24_285.txt.gz
Total_Precipitation_Accumulation
0.02 0.01 0.12 0.14 0.14 0.11 0.11 0.13 0.19 0.20 0.14 0.12 0.20 0.27 0.41 0.55 0.73 0.71 0.75 0.66 0.94 1.90 1.42 1.04 0.78 0.42 0.60 1.07 1.31 0.57 0.40 0.20 0.08 0.02 0.01 0.03 0.04 0.02 0.04 0.08 0.08 0.11 0.17
0.00 0.01 0.11 0.08 0.08 0.04 0.04 0.10 0.16 0.14 0.14 0.12 0.15 0.24 0.45 0.53 0.99 0.88 0.82 0.59 1.07 1.23 0.93 0.78 0.74 0.73 0.97 1.18 0.52 0.25 0.10 0.03 0.01 0.01 0.01 0.01 0.01 0.00 0.02 0.06 0.05 0.01 0.01
0.00 0.01 0.03 0.06 0.02 0.02 0.05 0.13 0.14 0.16 0.17 0.19 0.22 0.34 0.45 1.63 2.55 0.84 0.73 0.59 0.77 0.66 0.62 0.73 0.78 0.95 0.77 0.44 0.10 0.21 0.06 0.19 0.10 0.05 0.05 0.00 0.00 0.01 0.01 0.01 0.00 0.00 0.00
0.00 0.00 0.00 0.02 0.03 0.03 0.04 0.07 0.09 0.16 0.10 0.15 0.18 0.29 0.48 1.60 1.43 0.83 0.62 0.47 0.62 0.42 0.33 0.48 0.50 0.32 0.20 0.12 0.11 0.09 0.12 0.14 0.10 0.08 0.01 0.00 0.00 0.04 0.03 0.00 0.00 0.00 0.01
0.00 0.00 0.00 0.01 0.03 0.10 0.15 0.11 0.09 0.11 0.07 0.14 0.19 0.47 0.62 0.70 0.48 0.29 0.30 0.35 0.39 0.25 0.37 0.50 0.24 0.12 0.16 0.16 0.15 0.16 0.07 0.10 0.06 0.01 0.00 0.00 0.00 0.00 0.01 0.04 0.07 0.05 0.08
0.00 0.00 0.01 0.04 0.08 0.15 0.10 0.06 0.09 0.10 0.05 0.11 0.15 0.16 0.21 0.18 0.12 0.10 0.11 0.14 0.09 0.17 0.29 0.11 0.05 0.04 0.05 0.05 0.05 0.04 0.00 0.02 0.02 0.00 0.00 0.00 0.00 0.03 0.04 0.06 0.04 0.03 0.02
0.00 0.00 0.01 0.03 0.08 0.19 0.21 0.11 0.05 0.04 0.03 0.06 0.25 0.16 0.20 0.14 0.09 0.11 0.09 0.09 0.04 0.09 0.09 0.06 0.01 0.01 0.04 0.02 0.00 0.00 0.00 0.02 0.00 0.00 0.00 0.00 0.00 0.03 0.02 0.01 0.01 0.01 0.02
0.00 0.00 0.01 0.05 0.04 0.06 0.12 0.06 0.05 0.03 0.03 0.05 0.07 0.13 0.19 0.24 0.18 0.16 0.12 0.11 0.06 0.05 0.04 0.02 0.01 0.02 0.00 0.00 0.00 0.00 0.01 0.05 0.02 0.00 0.00 0.00 0.00 0.00 0.00 0.02 0.01 0.01 0.00
0.00 0.00 0.00 0.02 0.03 0.06 0.05 0.06 0.01 0.00 0.01 0.04 0.05 0.07 0.05 0.07 0.08 0.07 0.07 0.08 0.06 0.03 0.02 0.00 0.01 0.01 0.02 0.00 0.00 0.01 0.04 0.04 0.02 0.00 0.00 0.00 0.00 0.01 0.01 0.00 0.01 0.01 0.01
0.01 0.00 0.00 0.00 0.00 0.00 0.01 0.02 0.01 0.00 0.02 0.07 0.07 0.07 0.05 0.03 0.03 0.03 0.08 0.07 0.03 0.01 0.01 0.00 0.00 0.00 0.01 0.01 0.00 0.00 0.01 0.01 0.01 0.00 0.00 0.00 0.00 0.00 0.00 0.00 0.00 0.00 0.01
0.00 0.00 0.00 0.02 0.00 0.01 0.00 0.01 0.00 0.02 0.04 0.05 0.08 0.08 0.09 0.06 0.07 0.07 0.06 0.00 0.00 0.01 0.00 0.00 0.00 0.00 0.00 0.00 0.01 0.01 0.01 0.04 0.01 0.00 0.00 0.00 0.00 0.00 0.00 0.00 0.00 0.00 0.00
0.00 0.00 0.00 0.00 0.00 0.00 0.00 0.07 0.14 0.09 0.03 0.05 0.05 0.14 0.15 0.11 0.09 0.27 0.02 0.01 0.01 0.00 0.00 0.00 0.00 0.00 0.00 0.00 0.00 0.00 0.03 0.03 0.05 0.02 0.01 0.03 0.04 0.00 0.00 0.00 0.00 0.00 0.00
0.00 0.00 0.00 0.00 0.03 0.04 0.02 0.11 0.13 0.11 0.09 0.06 0.01 0.05 0.08 0.04 0.01 0.03 0.03 0.04 0.03 0.02 0.02 0.03 0.01 0.00 0.00 0.00 0.00 0.00 0.01 0.00 0.00 0.00 0.02 0.05 0.11 0.02 0.00 0.00 0.00 0.00 0.00
0.00 0.00 0.00 0.00 0.00 0.03 0.03 0.20 0.15 0.27 0.15 0.06 0.00 0.01 0.04 0.05 0.02 0.02 0.07 0.09 0.05 0.05 0.05 0.05 0.02 0.00 0.00 0.01 0.00 0.00 0.00 0.00 0.01 0.01 0.00 0.01 0.07 0.08 0.01 0.01 0.04 0.03 0.02
0.00 0.00 0.00 0.00 0.01 0.01 0.01 0.07 0.23 0.44 0.31 0.13 0.08 0.02 0.02 0.03 0.07 0.05 0.03 0.09 0.08 0.11 0.13 0.00 0.00 0.01 0.00 0.01 0.00 0.00 0.02 0.01 0.00 0.00 0.00 0.00 0.03 0.07 0.12 0.11 0.15 0.13 0.16
0.00 0.00 0.00 0.00 0.00 0.01 0.10 0.15 0.25 0.76 0.43 0.41 0.41 0.11 0.16 0.17 0.12 0.31 0.24 0.14 0.15 0.16 0.06 0.13 0.08 0.05 0.03 0.02 0.05 0.03 0.02 0.04 0.03 0.07 0.01 0.01 0.02 0.09 0.20 0.34 0.57 0.40 0.26
0.00 0.00 0.00 0.00 0.00 0.01 0.08 0.13 0.21 0.50 0.69 0.28 0.14 0.09 0.12 0.15 0.31 0.45 0.30 0.30 0.19 0.15 0.19 0.23 0.17 0.19 0.16 0.12 0.13 0.12 0.08 0.08 0.06 0.19 0.19 0.06 0.03 0.10 0.23 0.31 0.62 0.56 0.58
0.00 0.00 0.00 0.00 0.00 0.00 0.02 0.06 0.10 0.15 0.11 0.05 0.01 0.02 0.04 0.05 0.19 0.10 0.10 0.11 0.08 0.16 0.32 0.32 0.23 0.33 0.52 0.31 0.07 0.04 0.05 0.11 0.17 0.20 0.26 0.20 0.18 0.05 0.25 0.30 0.40 0.49 0.56
0.00 0.00 0.00 0.00 0.00 0.00 0.01 0.08 0.09 0.03 0.12 0.11 0.02 0.01 0.01 0.02 0.06 0.03 0.06 0.04 0.11 0.17 0.25 0.28 0.46 0.55 0.31 0.36 0.07 0.06 0.09 0.17 0.29 0.23 0.20 0.28 0.54 0.17 0.11 0.18 0.42 0.71 0.41
0.00 0.00 0.00 0.00 0.00 0.00 0.02 0.07 0.13 0.00 0.04 0.04 0.02 0.02 0.01 0.01 0.07 0.04 0.12 0.26 0.26 0.24 0.32 0.55 0.66 0.67 0.35 0.17 0.09 0.13 0.22 0.22 0.27 0.42 0.31 0.45 0.64 0.29 0.26 0.25 0.85 0.60 0.57
0.05 0.06 0.01 0.00 0.00 0.00 0.01 0.03 0.04 0.01 0.07 0.10 0.12 0.21 0.13 0.12 0.15 0.42 0.51 0.49 0.22 0.39 0.31 0.31 0.55 0.75 0.59 0.31 0.41 0.12 0.09 0.30 0.30 0.32 0.24 0.36 0.44 0.52 0.57 0.63 0.55 0.71 0.45
0.02 0.06 0.03 0.00 0.01 0.00 0.02 0.03 0.04 0.05 0.09 0.08 0.41 0.35 0.20 0.21 0.45 1.05 1.25 0.56 0.51 0.63 0.73 0.41 0.52 0.50 0.30 0.35 0.49 0.33 0.27 0.37 0.70 0.51 0.23 1.18 1.04 1.73 1.34 0.89 0.61 0.80 0.77
0.02 0.03 0.01 0.01 0.03 0.00 0.02 0.05 0.10 0.16 0.17 0.25 0.28 0.73 1.03 0.71 0.33 0.49 0.57 0.47 0.41 0.57 0.56 0.72 0.61 0.69 0.30 0.38 0.40 0.35 0.16 0.35 0.56 0.48 0.69 0.61 0.32 0.31 0.77 2.23 1.53 1.38 1.47
0.01 0.05 0.02 0.02 0.04 0.01 0.01 0.02 0.13 0.15 0.38 0.31 0.24 0.45 0.35 0.33 0.16 0.14 0.21 0.28 0.38 0.48 0.50 0.48 0.66 0.64 0.51 0.55 0.44 0.41 0.26 0.19 0.28 0.17 0.75 0.52 0.10 0.25 0.23 0.11 0.17 0.12 0.37
0.00 0.03 0.02 0.08 0.09 0.03 0.04 0.07 0.09 0.14 0.40 0.33 0.31 0.31 0.39 0.54 0.22 0.16 0.16 0.10 0.06 0.20 0.25 0.31 0.43 0.34 0.35 0.24 0.24 0.47 0.50 0.40 0.40 0.25 0.20 0.10 0.07 0.25 0.49 0.54 0.22 0.35 0.18
0.01 0.01 0.01 0.16 0.16 0.07 0.07 0.07 0.09 0.30 0.17 0.31 0.28 0.35 0.35 0.33 0.12 0.02 0.01 0.02 0.05 0.05 0.05 0.12 0.13 0.12 0.09 0.14 0.09 0.24 0.26 0.37 0.30 0.27 0.15 0.02 0.06 0.01 0.00 0.01 0.02 0.06 0.10

GFSSE_prec_precacc24_288.txt.gz
Total_Precipitation_Accumulation
0.02 0.01 0.12 0.15 0.15 0.14 0.13 0.11 0.18 0.20 0.13 0.11 0.29 0.50 0.55 0.69 0.82 0.77 0.80 0.62 0.88 1.75 1.32 0.90 0.76 0.40 0.61 1.08 1.25 0.44 0.35 0.18 0.06 0.01 0.01 0.04 0.05 0.02 0.05 0.11 0.12 0.11 0.18
0.00 0.02 0.11 0.09 0.09 0.04 0.08 0.10 0.12 0.15 0.16 0.22 0.22 0.45 0.61 0.74 1.11 0.89 0.82 0.56 0.99 1.13 0.82 0.69 0.62 0.61 0.92 1.11 0.51 0.24 0.09 0.02 0.01 0.01 0.01 0.01 0.01 0.00 0.02 0.08 0.07 0.01 0.04
0.00 0.01 0.03 0.08 0.03 0.06 0.10 0.11 0.18 0.30 0.34 0.30 0.31 0.56 0.69 1.88 2.70 0.86 0.69 0.54 0.67 0.56 0.58 0.68 0.75 0.95 0.73 0.44 0.10 0.21 0.04 0.15 0.08 0.04 0.03 0.00 0.00 0.01 0.01 0.01 0.00 0.00 0.02
0.00 0.00 0.00 0.05 0.05 0.07 0.08 0.08 0.15 0.25 0.16 0.21 0.36 0.54 0.70 1.86 2.14 0.87 0.57 0.38 0.52 0.33 0.31 0.55 0.52 0.31 0.19 0.12 0.11 0.07 0.08 0.12 0.07 0.08 0.01 0.00 0.00 0.02 0.03 0.00 0.00 0.00 0.00
0.00 0.00 0.00 0.01 0.04 0.09 0.16 0.16 0.15 0.17 0.14 0.29 0.62 0.85 0.80 1.21 0.99 0.48 0.28 0.26 0.34 0.22 0.38 0.67 0.34 0.13 0.14 0.12 0.13 0.13 0.05 0.09 0.06 0.01 0.00 0.00 0.00 0.00 0.01 0.04 0.07 0.05 0.06
0.00 0.00 0.01 0.01 0.06 0.10 0.16 0.11 0.10 0.13 0.09 0.15 0.31 0.49 0.47 0.60 0.28 0.19 0.14 0.12 0.12 0.25 0.42 0.21 0.06 0.06 0.06 0.05 0.05 0.05 0.01 0.02 0.02 0.00 0.00 0.00 0.00 0.00 0.03 0.06 0.04 0.04 0.02
0.00 0.00 0.00 0.04 0.10 0.17 0.23 0.12 0.08 0.08 0.10 0.10 0.28 0.22 0.24 0.16 0.14 0.14 0.18 0.13 0.09 0.18 0.18 0.10 0.02 0.04 0.06 0.03 0.01 0.00 0.00 0.02 0.00 0.00 0.00 0.00 0.00 0.01 0.01 0.01 0.01 0.01 0.01
0.00 0.00 0.01 0.04 0.06 0.12 0.15 0.10 0.12 0.12 0.12 0.12 0.10 0.17 0.21 0.30 0.24 0.20 0.18 0.15 0.08 0.08 0.07 0.03 0.02 0.02 0.00 0.00 0.00 0.00 0.01 0.05 0.02 0.00 0.00 0.00 0.00 0.00 0.00 0.02 0.01 0.01 0.00
0.00 0.00 0.00 0.02 0.04 0.08 0.06 0.09 0.06 0.07 0.06 0.08 0.08 0.11 0.11 0.16 0.18 0.15 0.11 0.11 0.12 0.05 0.03 0.03 0.03 0.00 0.00 0.00 0.00 0.01 0.04 0.04 0.02 0.00 0.00 0.00 0.00 0.00 0.00 0.00 0.01 0.01 0.01
0.01 0.00 0.00 0.00 0.02 0.00 0.01 0.02 0.01 0.03 0.04 0.08 0.10 0.11 0.09 0.05 0.05 0.04 0.10 0.08 0.07 0.01 0.02 0.00 0.00 0.00 0.00 0.00 0.00 0.00 0.01 0.00 0.01 0.00 0.00 0.00 0.00 0.00 0.00 0.00 0.00 0.00 0.01
0.00 0.00 0.00 0.02 0.00 0.01 0.01 0.01 0.00 0.03 0.05 0.07 0.08 0.09 0.12 0.09 0.08 0.08 0.08 0.02 0.00 0.00 0.00 0.00 0.00 0.00 0.00 0.00 0.01 0.01 0.01 0.04 0.01 0.00 0.00 0.00 0.00 0.00 0.00 0.00 0.00 0.00 0.00
0.00 0.00 0.00 0.00 0.01 0.00 0.00 0.03 0.11 0.04 0.03 0.06 0.05 0.14 0.15 0.12 0.10 0.27 0.03 0.02 0.01 0.00 0.00 0.00 0.00 0.00 0.00 0.00 0.00 0.00 0.03 0.03 0.05 0.02 0.01 0.03 0.04 0.00 0.00 0.00 0.00 0.00 0.00
0.00 0.00 0.00 0.00 0.03 0.04 0.02 0.08 0.02 0.01 0.02 0.02 0.02 0.05 0.08 0.04 0.01 0.03 0.03 0.04 0.03 0.02 0.02 0.02 0.00 0.00 0.00 0.00 0.00 0.00 0.01 0.00 0.00 0.00 0.02 0.05 0.11 0.02 0.00 0.00 0.00 0.00 0.00
0.00 0.00 0.00 0.00 0.00 0.03 0.03 0.19 0.11 0.08 0.01 0.00 0.00 0.01 0.02 0.02 0.01 0.02 0.06 0.08 0.05 0.05 0.05 0.05 0.02 0.00 0.00 0.01 0.00 0.00 0.00 0.00 0.01 0.01 0.00 0.01 0.07 0.08 0.01 0.01 0.02 0.00 0.00
0.00 0.00 0.00 0.00 0.01 0.01 0.01 0.07 0.23 0.35 0.14 0.02 0.04 0.02 0.02 0.02 0.05 0.05 0.02 0.04 0.05 0.11 0.13 0.00 0.00 0.01 0.00 0.01 0.00 0.00 0.02 0.01 0.00 0.00 0.00 0.00 0.03 0.07 0.12 0.11 0.06 0.14 0.08
0.00 0.00 0.00 0.00 0.00 0.01 0.10 0.15 0.25 0.74 0.17 0.12 0.11 0.05 0.04 0.07 0.13 0.31 0.23 0.13 0.11 0.15 0.06 0.11 0.07 0.05 0.03 0.01 0.01 0.02 0.01 0.03 0.03 0.07 0.01 0.00 0.02 0.09 0.20 0.32 0.52 0.41 0.23
0.00 0.00 0.00 0.00 0.00 0.01 0.08 0.13 0.22 0.50 0.51 0.06 0.03 0.07 0.08 0.11 0.24 0.39 0.32 0.31 0.17 0.14 0.16 0.19 0.14 0.12 0.08 0.06 0.05 0.06 0.06 0.07 0.06 0.19 0.19 0.06 0.03 0.10 0.23 0.31 0.55 0.56 0.68
0.00 0.00 0.00 0.00 0.00 0.00 0.02 0.06 0.10 0.15 0.08 0.05 0.01 0.03 0.07 0.12 0.23 0.19 0.21 0.20 0.24 0.31 0.24 0.16 0.12 0.20 0.34 0.19 0.03 0.02 0.05 0.11 0.16 0.20 0.26 0.20 0.18 0.05 0.25 0.33 0.40 0.48 0.60
0.00 0.00 0.00 0.00 0.00 0.00 0.01 0.08 0.09 0.03 0.13 0.12 0.02 0.01 0.01 0.07 0.11 0.11 0.07 0.05 0.17 0.22 0.23 0.17 0.25 0.43 0.30 0.32 0.04 0.05 0.09 0.16 0.29 0.23 0.20 0.28 0.54 0.17 0.11 0.19 0.46 0.75 0.41
0.00 0.00 0.00 0.00 0.00 0.00 0.02 0.07 0.13 0.00 0.04 0.04 0.02 0.02 0.02 0.02 0.08 0.08 0.12 0.31 0.27 0.27 0.36 0.62 0.64 0.76 0.36 0.20 0.09 0.13 0.22 0.22 0.27 0.42 0.31 0.45 0.64 0.29 0.26 0.25 0.87 0.60 0.58
0.05 0.06 0.01 0.00 0.00 0.00 0.01 0.03 0.04 0.01 0.07 0.10 0.12 0.17 0.13 0.12 0.16 0.45 0.55 0.50 0.25 0.39 0.26 0.29 0.53 0.74 0.59 0.30 0.42 0.12 0.09 0.30 0.30 0.32 0.24 0.36 0.44 0.52 0.57 0.74 0.59 0.73 0.47
0.02 0.06 0.03 0.00 0.01 0.00 0.02 0.03 0.04 0.05 0.09 0.08 0.39 0.30 0.20 0.21 0.50 1.08 1.26 0.55 0.49 0.63 0.68 0.38 0.50 0.47 0.28 0.27 0.41 0.28 0.27 0.42 0.72 0.51 0.23 1.18 1.04 1.73 1.34 0.90 0.65 0.81 0.77
0.02 0.03 0.01 0.01 0.03 0.00 0.02 0.05 0.06 0.14 0.15 0.20 0.22 0.70 1.01 0.71 0.33 0.49 0.57 0.45 0.40 0.60 0.53 0.50 0.46 0.68 0.35 0.24 0.22 0.29 0.21 0.35 0.50 0.48 0.69 0.61 0.32 0.31 0.77 2.23 1.53 1.38 1.47
0.01 0.05 0.02 0.02 0.04 0.01 0.01 0.02 0.05 0.10 0.32 0.21 0.18 0.45 0.35 0.32 0.14 0.14 0.22 0.28 0.38 0.44 0.46 0.41 0.62 0.59 0.49 0.40 0.35 0.26 0.32 0.25 0.29 0.18 0.73 0.52 0.10 0.25 0.23 0.11 0.17 0.12 0.37
0.00 0.03 0.02 0.08 0.09 0.03 0.04 0.07 0.06 0.14 0.29 0.21 0.26 0.31 0.39 0.54 0.22 0.16 0.20 0.10 0.08 0.20 0.25 0.30 0.43 0.35 0.35 0.21 0.19 0.44 0.48 0.46 0.40 0.22 0.16 0.01 0.05 0.25 0.48 0.54 0.22 0.35 0.18
0.01 0.01 0.01 0.16 0.16 0.07 0.07 0.07 0.20 0.37 0.19 0.29 0.30 0.36 0.35 0.33 0.12 0.02 0.00 0.00 0.01 0.03 0.05 0.12 0.13 0.12 0.10 0.16 0.09 0.17 0.15 0.22 0.24 0.22 0.13 0.01 0.01 0.00 0.00 0.01 0.02 0.06 0.10

GFSSE_prec_precacc24_291.txt.gz
Total_Precipitation_Accumulation
0.02 0.01 0.13 0.21 0.22 0.20 0.17 0.16 0.18 0.18 0.12 0.13 0.49 0.60 0.67 0.74 0.81 0.73 0.78 0.62 0.82 1.67 1.23 0.82 0.73 0.42 0.53 0.85 1.05 0.39 0.31 0.17 0.05 0.01 0.01 0.04 0.05 0.02 0.05 0.11 0.20 0.12 0.18
0.00 0.02 0.12 0.16 0.15 0.10 0.13 0.09 0.09 0.15 0.22 0.25 0.41 0.63 0.77 0.83 1.14 0.89 0.81 0.51 0.87 1.06 0.72 0.59 0.58 0.57 0.72 0.96 0.41 0.20 0.08 0.02 0.01 0.01 0.01 0.01 0.01 0.00 0.02 0.05 0.10 0.01 0.04
0.00 0.01 0.03 0.10 0.07 0.11 0.12 0.08 0.17 0.36 0.39 0.34 0.49 0.80 0.92 2.03 2.73 0.87 0.63 0.42 0.59 0.45 0.51 0.62 0.69 0.77 0.65 0.43 0.07 0.20 0.05 0.16 0.07 0.00 0.00 0.00 0.00 0.01 0.01 0.01 0.00 0.00 0.02
0.00 0.00 0.00 0.07 0.08 0.13 0.13 0.10 0.20 0.27 0.18 0.25 0.53 0.80 1.16 2.01 2.20 0.93 0.50 0.32 0.46 0.29 0.29 0.66 0.55 0.28 0.16 0.08 0.10 0.08 0.07 0.10 0.04 0.05 0.01 0.00 0.00 0.00 0.00 0.00 0.00 0.00 0.04
0.00 0.00 0.00 0.03 0.06 0.10 0.15 0.13 0.12 0.16 0.19 0.61 1.03 1.13 1.39 1.37 1.13 0.50 0.19 0.23 0.31 0.22 0.49 0.84 0.33 0.12 0.16 0.11 0.11 0.12 0.05 0.07 0.05 0.01 0.00 0.00 0.00 0.00 0.00 0.01 0.06 0.05 0.05
0.00 0.00 0.01 0.02 0.06 0.09 0.16 0.12 0.10 0.09 0.08 0.36 0.67 0.72 0.63 0.72 0.36 0.18 0.10 0.09 0.14 0.36 0.56 0.28 0.04 0.06 0.07 0.05 0.05 0.05 0.01 0.02 0.02 0.00 0.00 0.00 0.00 0.00 0.00 0.01 0.01 0.02 0.01
0.00 0.00 0.00 0.06 0.09 0.11 0.17 0.10 0.08 0.08 0.10 0.10 0.30 0.27 0.30 0.25 0.24 0.18 0.30 0.19 0.26 0.33 0.24 0.10 0.04 0.07 0.09 0.05 0.01 0.00 0.00 0.02 0.00 0.00 0.00 0.00 0.00 0.00 0.00 0.00 0.00 0.01 0.01
0.00 0.00 0.01 0.04 0.07 0.13 0.10 0.09 0.10 0.14 0.14 0.16 0.12 0.19 0.22 0.32 0.26 0.26 0.29 0.21 0.17 0.16 0.10 0.03 0.05 0.03 0.00 0.00 0.00 0.00 0.01 0.05 0.02 0.00 0.00 0.00 0.00 0.00 0.00 0.00 0.00 0.01 0.00
0.00 0.00 0.00 0.02 0.04 0.08 0.06 0.09 0.08 0.11 0.10 0.10 0.12 0.19 0.16 0.24 0.24 0.24 0.15 0.15 0.13 0.07 0.06 0.05 0.03 0.00 0.00 0.00 0.00 0.01 0.04 0.04 0.02 0.00 0.00 0.00 0.00 0.00 0.00 0.00 0.00 0.00 0.00
0.01 0.00 0.00 0.01 0.02 0.01 0.01 0.03 0.03 0.06 0.06 0.13 0.16 0.17 0.15 0.12 0.11 0.11 0.12 0.09 0.07 0.03 0.01 0.00 0.00 0.00 0.00 0.00 0.00 0.00 0.01 0.00 0.01 0.00 0.00 0.00 0.00 0.00 0.00 0.00 0.00 0.00 0.01
0.00 0.00 0.00 0.02 0.00 0.01 0.01 0.02 0.01 0.04 0.07 0.09 0.11 0.16 0.20 0.11 0.10 0.15 0.08 0.02 0.00 0.00 0.00 0.00 0.00 0.00 0.00 0.00 0.01 0.01 0.01 0.12 0.01 0.00 0.01 0.00 0.00 0.00 0.00 0.00 0.00 0.00 0.00
0.00 0.00 0.00 0.00 0.01 0.00 0.00 0.06 0.04 0.02 0.05 0.08 0.05 0.16 0.15 0.12 0.10 0.27 0.03 0.02 0.01 0.00 0.00 0.00 0.00 0.00 0.00 0.00 0.00 0.00 0.03 0.03 0.05 0.02 0.01 0.03 0.04 0.00 0.00 0.00 0.00 0.00 0.00
0.00 0.00 0.00 0.00 0.03 0.04 0.02 0.08 0.02 0.00 0.01 0.02 0.02 0.05 0.08 0.04 0.01 0.03 0.03 0.05 0.03 0.02 0.02 0.02 0.00 0.00 0.00 0.00 0.00 0.00 0.01 0.00 0.00 0.00 0.02 0.05 0.11 0.02 0.00 0.00 0.00 0.00 0.00
0.00 0.00 0.00 0.00 0.00 0.03 0.03 0.19 0.10 0.08 0.00 0.00 0.00 0.01 0.01 0.01 0.01 0.02 0.06 0.08 0.05 0.05 0.05 0.05 0.02 0.00 0.00 0.01 0.00 0.00 0.00 0.00 0.01 0.01 0.00 0.02 0.07 0.08 0.01 0.00 0.00 0.00 0.00
0.00 0.00 0.00 0.00 0.01 0.01 0.01 0.07 0.20 0.32 0.07 0.00 0.01 0.01 0.01 0.00 0.05 0.05 0.02 0.03 0.05 0.11 0.13 0.00 0.00 0.01 0.00 0.01 0.00 0.00 0.02 0.01 0.00 0.00 0.00 0.01 0.03 0.07 0.12 0.11 0.06 0.14 0.07
0.00 0.00 0.00 0.00 0.00 0.01 0.10 0.15 0.24 0.61 0.12 0.02 0.00 0.00 0.03 0.05 0.07 0.16 0.15 0.07 0.08 0.15 0.06 0.11 0.07 0.05 0.03 0.01 0.01 0.02 0.01 0.03 0.03 0.07 0.01 0.00 0.02 0.09 0.20 0.32 0.50 0.44 0.30
0.00 0.00 0.00 0.00 0.00 0.01 0.08 0.13 0.22 0.37 0.28 0.04 0.02 0.03 0.03 0.11 0.20 0.16 0.23 0.23 0.10 0.11 0.10 0.14 0.09 0.07 0.06 0.05 0.03 0.06 0.06 0.08 0.07 0.19 0.19 0.06 0.03 0.11 0.23 0.33 0.56 0.62 0.77
0.00 0.00 0.00 0.00 0.00 0.00 0.02 0.06 0.10 0.13 0.08 0.05 0.00 0.03 0.07 0.12 0.22 0.19 0.20 0.19 0.25 0.31 0.22 0.17 0.12 0.11 0.23 0.18 0.03 0.01 0.05 0.11 0.16 0.20 0.26 0.21 0.18 0.06 0.26 0.35 0.46 0.58 0.66
0.00 0.00 0.00 0.00 0.00 0.00 0.01 0.08 0.09 0.04 0.13 0.12 0.02 0.01 0.01 0.07 0.11 0.13 0.07 0.07 0.23 0.25 0.27 0.17 0.25 0.46 0.26 0.19 0.03 0.05 0.09 0.16 0.28 0.22 0.20 0.29 0.55 0.18 0.12 0.21 0.50 0.79 0.44
0.00 0.00 0.00 0.00 0.00 0.00 0.02 0.07 0.13 0.01 0.04 0.04 0.02 0.02 0.02 0.02 0.08 0.11 0.13 0.35 0.27 0.29 0.35 0.59 0.55 0.72 0.30 0.19 0.09 0.14 0.22 0.22 0.27 0.41 0.30 0.45 0.64 0.30 0.26 0.26 0.91 0.62 0.67
0.05 0.06 0.01 0.00 0.00 0.00 0.01 0.03 0.04 0.02 0.07 0.10 0.12 0.16 0.13 0.12 0.16 0.42 0.55 0.50 0.25 0.34 0.20 0.26 0.51 0.69 0.60 0.31 0.41 0.11 0.09 0.30 0.30 0.32 0.24 0.36 0.45 0.51 0.57 0.77 0.63 0.87 0.62
0.02 0.06 0.03 0.00 0.01 0.00 0.02 0.03 0.04 0.05 0.09 0.08 0.39 0.28 0.20 0.21 0.50 1.00 1.15 0.49 0.45 0.62 0.66 0.38 0.54 0.53 0.43 0.23 0.33 0.18 0.25 0.46 0.48 0.36 0.23 1.18 1.03 1.72 1.34 0.91 0.69 0.81 0.78
0.02 0.03 0.01 0.01 0.03 0.00 0.02 0.05 0.05 0.11 0.15 0.20 0.21 0.65 0.93 0.57 0.25 0.37 0.37 0.28 0.35 0.57 0.44 0.38 0.45 0.64 0.38 0.14 0.17 0.34 0.31 0.51 0.17 0.38 0.63 0.60 0.30 0.31 0.77 2.23 1.53 1.38 1.47
0.01 0.05 0.02 0.02 0.04 0.01 0.01 0.02 0.03 0.07 0.26 0.18 0.17 0.43 0.29 0.30 0.14 0.13 0.20 0.31 0.42 0.39 0.42 0.36 0.53 0.45 0.44 0.33 0.30 0.28 0.36 0.31 0.22 0.22 0.57 0.52 0.10 0.24 0.22 0.11 0.17 0.12 0.37
0.00 0.03 0.02 0.08 0.09 0.03 0.04 0.07 0.06 0.12 0.18 0.20 0.23 0.28 0.31 0.52 0.22 0.16 0.20 0.12 0.10 0.16 0.22 0.29 0.38 0.32 0.36 0.21 0.20 0.48 0.55 0.46 0.25 0.11 0.13 0.01 0.03 0.17 0.27 0.53 0.21 0.35 0.18
0.01 0.01 0.01 0.16 0.16 0.07 0.07 0.07 0.20 0.22 0.14 0.22 0.24 0.28 0.23 0.25 0.09 0.04 0.03 0.04 0.04 0.05 0.05 0.07 0.11 0.12 0.10 0.18 0.09 0.14 0.17 0.23 0.29 0.11 0.05 0.01 0.01 0.00 0.00 0.01 0.02 0.05 0.10